Temperature
24 24 23 23 21 20 22 23 24 23 23 23 23 22 21 20 20 19 19 19 19 19 19 19 19 19 19 19 19 19 19 19 19 19 19 19 19 18 18 18 18 18 18 18 18 18 18 18 18
24 24 23 23 21 21 23 23 23 23 23 23 23 21 20 19 18 19 19 19 19 19 19 19 19 19 19 19 19 19 19 19 19 19 19 19 18 18 18 18 18 18 18 18 18 18 18 18 18
24 24 23 20 21 22 23 24 23 23 24 23 22 21 20 18 19 19 20 19 19 19 19 19 19 19 19 19 19 19 19 19 19 19 19 18 18 18 18 18 18 18 18 18 18 18 18 18 17
24 24 23 21 23 23 23 24 24 24 24 23 22 20 20 19 20 20 20 19 20 19 19 19 19 19 19 19 19 19 19 19 19 19 19 18 18 18 18 18 18 18 18 18 18 18 18 17 17
24 24 21 21 23 24 24 24 24 24 23 23 21 20 19 19 20 20 20 20 20 19 19 19 19 19 19 19 19 19 19 19 19 19 19 18 18 18 18 18 18 18 18 18 18 17 17 17 17
25 21 21 22 23 24 24 25 24 23 23 22 21 19 18 19 20 20 20 20 20 20 19 19 19 19 19 19 19 19 19 19 19 19 19 19 18 18 18 18 18 18 18 18 17 17 17 17 17
23 20 22 23 23 24 25 25 24 23 22 22 21 19 18 19 20 20 20 20 19 19 19 19 19 19 19 19 19 19 19 19 19 19 19 18 18 18 18 18 18 18 18 17 17 17 17 17 17
25 20 22 22 24 24 25 25 24 23 23 22 22 19 18 19 20 20 20 19 19 19 19 19 19 19 19 19 19 19 19 19 19 19 19 18 18 18 18 18 18 18 17 17 17 17 17 17 17
25 20 22 23 24 25 25 24 24 24 23 23 22 21 21 20 19 19 19 19 19 19 19 19 19 19 19 19 19 19 19 19 19 18 18 18 18 18 18 18 18 18 17 17 17 17 17 17 17
23 21 24 24 24 24 25 25 24 24 23 22 21 21 21 20 19 20 19 19 19 19 19 19 19 19 19 19 19 19 19 19 19 18 18 18 18 18 18 18 18 18 17 17 17 17 17 17 17
23 23 24 25 26 26 25 25 24 23 22 22 21 21 20 20 20 20 20 20 20 20 20 20 19 19 19 19 19 19 19 19 19 18 18 18 18 18 18 18 18 18 18 17 17 17 17 17 17
24 24 25 26 26 26 25 25 24 24 24 25 24 23 21 20 20 21 21 21 21 20 20 20 20 19 19 19 19 19 19 19 19 18 18 18 18 18 18 18 18 18 18 17 17 17 17 17 17
24 25 26 26 26 26 26 25 25 25 25 24 23 21 21 21 21 21 21 21 21 21 20 20 20 20 19 19 19 19 19 19 19 18 18 18 18 18 18 18 18 18 18 17 17 17 17 17 17
24 25 25 26 26 26 25 25 25 24 24 23 21 21 21 21 21 21 21 21 21 21 21 20 20 20 19 19 19 19 19 19 19 19 18 18 18 18 18 18 18 18 18 17 17 17 17 17 17
24 24 24 25 25 26 25 24 24 23 23 22 21 20 20 20 21 21 21 21 21 21 21 20 20 20 19 19 19 19 19 19 19 19 18 18 18 18 18 18 18 18 18 17 17 17 17 17 17
24 23 24 24 24 25 25 24 24 23 22 21 20 20 19 20 21 21 21 21 21 21 21 20 20 20 20 19 19 19 19 19 19 18 18 18 18 18 18 18 18 18 18 17 17 17 17 17 17
21 22 24 24 24 25 24 24 23 23 22 21 20 20 20 20 20 21 21 21 21 21 21 21 20 20 20 19 19 19 19 19 19 18 18 18 18 18 18 18 18 18 17 17 17 17 17 17 17
21 22 23 24 24 24 24 23 22 22 22 21 21 21 20 20 21 21 21 21 21 21 21 20 20 20 20 19 19 18 18 18 18 18 18 18 18 18 18 18 18 17 17 17 17 17 17 17 17
22 22 23 23 24 24 23 22 22 21 22 21 21 21 21 21 21 21 21 21 21 21 21 20 20 20 20 19 19 19 19 19 18 18 18 18 18 18 18 18 18 18 17 17 17 17 17 17 17
22 22 22 23 23 24 23 22 21 21 21 21 21 21 21 21 21 21 21 21 21 21 21 20 20 20 20 20 20 19 19 19 18 18 18 18 18 18 18 18 18 18 17 17 17 17 17 17 17
22 22 22 23 23 22 23 22 21 21 22 22 22 22 22 22 22 21 21 21 21 21 21 21 20 20 20 20 19 19 19 18 18 18 18 18 18 18 18 18 18 18 18 18 17 17 17 17 17
21 22 22 23 22 20 22 21 21 21 20 21 22 22 22 22 22 22 22 22 22 22 21 21 21 20 20 20 19 19 19 19 19 19 19 18 18 18 18 18 18 18 18 18 17 17 17 17 17
22 23 23 23 22 20 21 21 20 20 20 21 21 22 22 22 22 22 22 22 22 22 22 21 21 20 20 20 19 19 19 19 19 19 19 18 18 18 18 18 18 18 18 18 18 17 17 17 17
23 21 20 17 18 20 20 20 20 19 20 21 21 22 22 22 22 22 22 22 22 21 21 21 21 20 20 19 19 19 19 19 19 19 19 19 18 18 18 18 18 18 18 18 18 17 17 17 17
21 19 19 20 18 18 19 20 20 20 20 20 21 22 22 22 22 22 22 22 22 21 21 21 21 20 20 19 19 19 19 19 19 19 19 19 18 18 18 18 18 18 18 18 18 17 17 17 17
19 19 18 19 19 18 19 20 20 20 20 21 22 22 22 22 22 22 22 22 21 21 21 21 20 20 20 19 19 19 19 19 19 19 19 18 18 18 18 18 18 18 18 17 18 17 17 17 17
19 19 19 17 18 19 19 19 20 20 20 20 21 21 21 22 22 22 22 22 21 21 21 21 20 20 20 19 19 19 19 19 19 18 18 18 18 18 18 18 18 18 17 17 17 17 17 17 17
20 17 16 17 18 19 20 20 20 21 20 20 19 20 21 22 22 21 21 22 21 21 21 21 20 20 20 19 19 19 19 19 19 18 18 18 18 18 18 18 18 18 17 17 17 17 17 17 17
19 18 16 15 17 18 19 20 20 20 20 19 19 20 21 21 22 22 22 21 21 21 21 20 20 20 19 19 19 19 19 19 18 18 18 18 18 18 18 18 17 17 17 17 17 17 17 17 17
20 18 17 18 17 16 18 19 20 19 18 19 19 20 21 21 21 21 21 21 21 21 20 20 20 20 19 19 19 19 19 18 18 18 18 18 18 18 18 18 17 17 17 17 17 17 17 17 17
Wind_Speed
2 2 2 2 5 6 4 3 1 2 3 3 6 7 8 5 2 5 3 7 10 8 10 13 15 16 17 17 18 18 19 19 19 19 19 19 19 19 19 19 18 19 19 19 19 19 19 19 18
2 2 1 4 6 4 3 3 2 2 4 5 6 7 7 5 5 8 5 8 10 9 10 13 15 16 16 17 17 17 18 18 18 18 18 18 18 18 18 18 18 19 19 19 19 19 18 18 18
2 1 3 5 4 4 1 1 3 4 3 3 5 6 5 5 6 5 6 11 9 8 10 13 16 15 16 16 16 16 17 17 17 18 17 17 18 18 18 18 18 18 18 18 18 18 17 17 17
2 3 5 6 3 2 3 3 4 5 4 6 5 7 5 5 5 7 12 12 11 7 10 14 15 15 15 15 15 15 16 16 16 17 17 17 17 17 17 17 17 17 18 18 17 17 16 16 16
3 4 6 4 2 2 2 4 4 4 3 4 5 6 4 4 11 14 13 12 10 8 9 13 15 15 14 14 14 15 15 15 16 16 16 16 16 16 17 16 17 17 17 17 16 15 15 14 15
4 5 5 2 2 1 2 3 3 4 5 4 5 5 4 6 12 13 11 10 8 8 8 12 15 14 14 14 14 14 15 15 15 15 15 15 15 15 15 15 16 16 15 15 14 14 13 13 13
4 5 4 2 0 0 3 3 4 5 5 4 5 6 4 7 9 11 10 9 7 7 7 8 11 12 13 13 13 13 14 14 14 14 14 14 14 14 14 14 14 14 14 14 13 13 13 12 13
5 5 4 1 2 2 3 4 4 5 5 6 5 8 8 10 12 11 10 8 7 6 5 6 8 9 10 11 12 13 13 13 13 13 13 13 13 13 13 12 12 13 12 12 12 12 12 11 11
4 5 2 4 5 3 4 4 3 4 6 4 4 5 9 18 16 14 12 8 7 7 5 5 6 8 9 9 11 11 12 11 11 11 12 11 10 10 10 11 11 11 11 11 11 11 11 11 11
5 3 5 5 5 5 5 6 7 6 5 3 6 10 18 18 17 16 15 14 11 9 7 5 5 6 7 8 8 7 8 8 8 9 10 10 9 8 8 9 10 10 10 10 10 10 10 9 9
4 5 4 4 4 4 6 6 6 9 6 8 13 21 22 19 16 15 14 13 12 10 9 7 6 6 6 5 6 6 6 7 8 9 10 9 7 6 6 5 6 7 7 7 8 8 7 7 7
3 4 4 3 2 5 7 7 6 7 7 9 18 24 23 21 18 17 16 13 11 10 9 8 6 6 5 6 5 5 5 5 5 7 8 7 5 4 4 4 4 5 5 6 6 5 5 5 6
3 3 3 4 3 5 6 6 5 4 6 15 19 20 21 19 16 13 11 11 11 11 10 9 8 7 5 5 5 5 5 5 6 6 7 7 5 3 3 3 3 4 4 4 4 4 4 4 4
3 3 4 3 2 4 6 3 4 3 13 18 20 20 18 18 16 13 12 12 12 12 11 9 9 7 6 5 4 4 5 6 6 6 7 7 6 5 3 3 2 2 3 3 3 3 3 3 3
2 2 5 3 1 2 7 2 3 7 16 18 18 17 16 14 14 14 15 13 13 12 11 10 10 8 7 6 5 5 6 7 6 7 8 8 8 7 5 3 2 2 3 3 3 3 3 2 3
3 4 2 4 2 2 8 6 4 11 16 16 16 16 15 13 14 13 13 11 11 11 11 11 11 10 8 7 6 5 6 7 6 8 8 9 9 9 6 4 3 4 3 3 2 2 2 2 2
5 3 1 3 3 3 4 5 3 10 14 15 15 15 14 12 12 12 13 12 12 12 11 11 9 10 9 7 6 5 5 6 7 8 8 9 10 10 8 5 4 5 4 2 2 2 2 2 2
4 3 1 1 2 2 2 3 4 9 12 13 13 12 13 15 15 13 13 13 12 11 10 11 9 9 8 6 4 3 3 4 6 7 8 10 10 10 8 5 5 5 3 2 2 2 1 1 2
6 4 2 3 3 1 3 3 5 9 10 10 11 11 13 14 10 11 13 13 12 11 11 11 11 9 9 6 6 5 4 4 4 6 9 10 10 10 9 6 5 5 4 4 4 3 2 1 2
4 2 1 2 2 1 1 3 3 9 14 15 15 15 15 12 11 12 13 13 14 14 13 13 12 11 10 9 6 4 3 3 3 4 6 9 10 10 10 7 6 6 5 5 5 4 3 2 3
4 5 4 2 3 4 2 4 2 4 6 7 10 11 11 13 13 13 14 15 14 14 15 14 12 11 11 9 6 4 3 2 2 4 4 7 10 11 10 10 8 7 6 6 6 6 5 4 3
4 6 6 3 2 2 2 2 6 4 5 9 11 11 11 11 11 11 13 14 15 15 13 12 12 11 10 10 9 9 7 6 7 5 5 5 8 10 10 10 9 7 6 7 7 6 5 5 4
7 4 4 3 4 1 1 3 7 2 6 12 13 13 11 11 12 12 13 13 12 12 12 11 10 10 10 10 11 11 8 6 4 4 5 5 6 8 10 10 9 8 7 7 6 6 6 5 5
6 6 7 6 5 1 4 5 6 6 9 9 11 11 11 10 10 10 10 9 9 10 10 11 11 11 11 11 11 11 10 8 6 6 6 5 4 5 8 9 8 8 7 7 7 7 8 7 6
6 6 4 3 2 5 3 4 9 7 7 8 10 10 10 9 10 11 11 11 11 12 12 11 12 11 11 11 11 10 10 10 9 8 7 6 5 5 7 7 7 7 8 8 8 7 8 8 7
7 10 8 6 6 4 1 6 8 5 4 5 6 6 7 8 9 11 11 11 10 11 11 12 12 11 11 11 10 8 8 7 6 7 6 6 6 6 6 7 8 9 9 9 8 7 8 7 8
8 6 8 7 3 1 4 6 8 3 3 1 2 4 6 8 9 10 10 10 10 10 12 12 12 10 10 10 9 7 7 7 6 6 5 5 4 4 5 6 7 8 8 8 7 7 8 7 8
8 10 7 7 6 3 4 4 5 5 5 2 3 4 5 6 7 7 7 8 8 9 9 9 10 10 8 8 8 7 7 7 6 5 5 5 5 4 4 5 6 6 6 7 7 7 7 8 8
6 6 6 6 6 7 4 7 6 7 6 4 4 4 4 5 6 6 6 6 7 7 7 8 9 8 8 8 7 6 6 6 6 5 6 5 4 4 5 5 6 6 7 6 7 8 8 9 9
6 9 9 7 4 5 5 7 5 5 5 4 4 3 3 4 3 4 5 6 6 7 7 7 8 8 7 7 7 6 6 5 5 5 5 4 4 4 4 4 5 5 6 6 7 8 8 9 9
Wind_Direction
211 158 140 95 57 49 34 355 57 65 52 59 89 91 96 77 101 131 119 128 124 124 128 123 118 115 113 111 109 109 110 111 111 111 111 112 111 110 109 108 107 107 107 107 107 107 107 107 108
158 154 101 60 73 62 343 331 42 58 120 112 82 77 76 70 73 106 125 130 125 125 125 126 121 118 116 114 113 112 112 113 113 113 113 113 112 111 110 108 108 108 109 109 108 108 108 108 108
191 167 85 68 83 142 204 316 110 97 93 84 81 70 74 101 116 122 138 132 121 120 126 132 125 121 118 117 115 115 115 115 115 115 114 114 114 113 111 110 109 110 110 109 108 109 108 108 109
123 58 55 66 76 209 187 173 143 116 66 59 94 78 71 91 122 130 134 131 124 121 132 136 128 125 121 119 118 118 117 116 116 116 115 115 115 115 113 112 110 109 109 109 108 109 108 108 111
64 76 60 50 331 284 181 165 149 105 72 69 88 86 59 45 110 126 132 132 131 129 134 137 133 129 125 124 123 121 119 118 118 117 117 116 116 116 114 113 111 110 110 109 109 109 109 110 112
55 66 79 80 313 341 155 161 129 98 92 88 88 93 73 118 126 134 132 130 130 130 129 137 136 133 130 128 128 125 123 122 121 120 119 117 116 116 116 115 114 113 112 111 110 110 109 111 113
97 88 120 154 176 259 178 141 132 126 118 121 112 102 112 140 136 131 126 123 121 119 118 127 136 137 136 133 132 129 127 126 125 123 122 121 119 118 117 116 116 116 116 114 112 109 108 111 116
116 99 94 141 158 214 155 117 122 129 122 119 118 138 159 160 139 127 122 117 119 116 112 117 125 131 134 137 136 135 132 130 129 129 127 126 124 123 121 119 119 118 117 116 114 112 110 112 118
88 76 140 197 183 202 152 133 133 107 117 125 120 144 148 143 139 136 137 134 141 141 124 120 121 126 133 139 141 139 138 137 135 133 130 120 112 115 118 123 124 122 120 119 117 113 110 108 114
89 128 215 208 194 182 169 155 153 130 137 117 94 111 132 145 150 154 158 162 163 162 154 138 133 135 140 144 132 129 129 129 124 119 116 113 113 117 121 129 128 125 120 118 114 108 104 100 105
143 186 233 237 208 172 159 157 154 143 187 188 159 148 151 156 161 165 168 170 170 165 164 157 148 145 141 129 130 121 119 121 122 122 124 122 116 111 106 106 107 106 105 98 100 93 95 100 108
172 237 234 263 182 160 163 156 158 183 212 169 157 154 157 165 172 175 174 173 168 168 171 164 156 149 147 139 138 135 131 130 129 134 137 133 123 113 108 103 97 93 95 96 97 98 100 104 116
204 265 263 256 230 176 155 167 162 204 141 134 145 156 166 171 176 178 174 169 168 175 175 172 165 161 155 146 155 154 150 149 147 149 155 154 146 140 131 123 118 113 112 110 109 107 110 109 119
241 264 297 292 205 169 150 155 137 180 137 141 155 167 175 177 175 171 172 174 178 180 179 175 175 168 161 160 163 160 163 162 163 169 174 174 166 158 153 147 143 136 131 127 123 118 116 113 127
301 339 350 359 67 146 122 116 190 155 144 152 166 174 178 181 178 182 183 181 182 183 178 177 179 171 170 172 179 173 172 172 177 184 187 185 181 174 166 162 169 175 152 134 115 108 112 120 126
60 56 9 317 32 122 137 204 197 155 155 164 173 179 183 186 187 188 185 182 180 177 178 181 186 178 179 178 180 175 176 181 189 191 192 192 190 184 172 173 190 188 166 151 132 124 115 113 125
46 109 177 316 7 100 140 208 183 164 164 171 178 183 185 186 191 191 187 184 181 180 177 180 184 177 180 179 178 181 178 187 195 195 195 198 195 190 182 188 194 181 165 166 173 137 136 148 149
178 152 152 245 325 80 163 220 174 175 174 180 183 186 188 195 198 190 186 185 182 179 177 180 181 175 169 166 165 170 181 192 197 199 202 199 196 192 185 193 195 179 167 174 166 150 131 146 158
147 136 176 251 279 130 206 226 199 182 180 184 191 194 200 205 193 183 183 184 181 179 178 185 187 179 168 167 175 180 194 194 198 208 206 201 197 192 185 195 189 183 185 187 177 164 157 160 130
149 146 209 314 351 129 220 273 230 188 195 196 196 201 203 196 183 185 185 185 186 186 186 188 192 184 182 184 178 172 169 182 194 205 204 203 199 195 197 193 193 189 186 185 183 171 163 177 165
181 179 191 213 1 26 91 337 276 224 214 211 212 210 207 202 196 189 189 191 190 192 191 194 193 189 189 176 158 140 120 117 173 200 205 203 201 202 202 197 196 193 191 198 197 187 178 187 193
218 209 182 167 100 304 83 268 273 235 226 222 221 213 211 207 199 192 191 193 196 197 191 188 188 189 187 176 175 173 183 196 203 200 202 202 204 205 205 204 200 198 198 203 206 197 190 181 196
197 183 160 148 145 93 20 168 277 226 230 235 227 219 213 205 199 198 198 198 196 190 188 186 185 187 186 186 186 186 194 198 187 183 194 206 210 210 208 208 204 203 206 210 205 195 196 194 195
149 79 59 53 83 175 226 173 264 223 218 233 227 217 210 201 198 196 193 186 185 183 183 183 185 188 187 189 192 196 195 189 184 193 200 209 214 216 213 208 206 208 209 211 209 206 205 205 204
118 99 54 25 33 238 254 188 246 246 231 231 228 216 204 193 189 185 184 185 186 185 186 185 186 189 188 191 196 201 201 195 197 200 204 207 215 220 218 212 210 213 215 214 209 209 215 210 208
164 143 157 176 199 251 261 223 254 266 262 248 230 208 187 184 186 187 189 183 185 187 183 183 188 191 188 191 197 199 199 199 202 201 202 206 215 222 215 210 214 217 216 217 210 213 218 214 218
138 171 157 128 141 128 273 282 299 288 304 280 200 165 178 184 183 185 182 175 180 185 186 185 185 187 190 193 194 199 201 199 200 197 197 204 212 219 215 214 220 223 220 217 210 217 221 218 222
143 143 113 127 144 197 282 273 248 257 251 239 206 189 187 178 176 178 174 176 179 181 179 176 180 185 184 184 188 198 200 199 195 189 197 207 211 214 213 221 226 231 227 220 216 221 222 220 225
113 108 113 118 145 151 201 262 232 222 223 219 224 204 186 180 179 176 176 171 162 161 164 169 174 176 179 184 186 188 190 194 190 194 203 208 212 211 216 224 227 231 231 224 221 226 223 225 230
148 157 145 147 179 161 162 257 277 220 221 201 197 185 168 169 172 168 166 154 148 154 160 162 164 171 178 176 173 180 181 183 192 201 204 202 209 214 219 224 230 234 234 226 225 232 229 228 230
Height
1481 1480 1481 1482 1486 1498 1502 1495 1490 1490 1490 1491 1492 1493 1497 1501 1505 1512 1509 1510 1513 1515 1517 1519 1520 1521 1522 1523 1524 1525 1527 1528 1529 1530 1531 1533 1534 1536 1537 1539 1540 1541 1542 1544 1545 1546 1548 1549 1551
1482 1482 1483 1484 1495 1512 1506 1494 1492 1491 1492 1492 1494 1496 1498 1502 1504 1506 1508 1512 1515 1517 1519 1521 1522 1524 1525 1526 1527 1529 1530 1531 1532 1533 1535 1536 1537 1539 1540 1542 1543 1544 1545 1547 1548 1549 1551 1552 1553
1482 1483 1485 1488 1500 1509 1503 1493 1492 1492 1493 1493 1496 1499 1501 1504 1506 1507 1510 1513 1516 1519 1521 1523 1525 1526 1528 1529 1530 1532 1533 1534 1535 1537 1538 1539 1541 1542 1543 1544 1546 1547 1548 1550 1551 1552 1553 1555 1556
1484 1485 1487 1495 1500 1497 1494 1492 1491 1492 1494 1495 1497 1501 1504 1508 1508 1510 1512 1516 1518 1521 1523 1526 1527 1529 1530 1532 1533 1535 1536 1537 1539 1540 1541 1543 1544 1545 1546 1547 1549 1550 1551 1552 1554 1555 1556 1558 1559
1484 1485 1494 1504 1500 1494 1490 1490 1492 1493 1495 1497 1498 1503 1507 1510 1511 1513 1515 1518 1520 1523 1526 1528 1530 1531 1533 1535 1536 1538 1539 1540 1541 1543 1544 1545 1547 1548 1549 1550 1552 1553 1554 1555 1557 1558 1559 1561 1562
1485 1487 1505 1510 1501 1493 1491 1491 1493 1495 1497 1499 1501 1504 1509 1511 1513 1515 1517 1520 1523 1525 1528 1530 1532 1534 1535 1537 1538 1540 1541 1543 1544 1546 1547 1548 1549 1551 1552 1553 1554 1556 1557 1558 1560 1561 1562 1563 1564
1487 1493 1503 1503 1502 1496 1492 1492 1493 1495 1498 1500 1502 1505 1510 1512 1515 1517 1519 1522 1525 1528 1530 1532 1534 1536 1538 1539 1541 1542 1544 1545 1547 1548 1549 1551 1552 1553 1554 1556 1557 1558 1560 1561 1563 1564 1565 1566 1567
1486 1493 1501 1503 1501 1497 1492 1493 1494 1496 1498 1501 1502 1504 1508 1511 1515 1518 1521 1524 1527 1529 1532 1534 1536 1538 1539 1541 1543 1545 1546 1548 1549 1551 1552 1553 1554 1556 1557 1558 1559 1561 1562 1564 1565 1566 1568 1569 1570
1487 1498 1505 1500 1498 1494 1491 1493 1496 1497 1499 1501 1502 1504 1506 1510 1514 1518 1522 1525 1528 1530 1533 1535 1537 1539 1541 1543 1545 1546 1548 1550 1551 1553 1554 1555 1557 1558 1559 1560 1562 1563 1565 1566 1568 1569 1570 1571 1572
1488 1500 1496 1491 1489 1489 1490 1491 1494 1497 1499 1501 1502 1505 1507 1510 1514 1517 1520 1523 1527 1530 1533 1536 1538 1540 1542 1544 1546 1548 1550 1552 1553 1554 1556 1557 1559 1560 1561 1563 1564 1566 1567 1568 1570 1571 1572 1573 1574
1487 1492 1488 1486 1486 1487 1489 1491 1493 1495 1499 1498 1498 1502 1506 1510 1514 1517 1520 1523 1527 1530 1533 1536 1539 1541 1544 1545 1547 1549 1551 1553 1555 1556 1558 1559 1560 1562 1563 1564 1566 1567 1569 1570 1571 1573 1574 1575 1576
1487 1486 1485 1484 1484 1485 1487 1490 1493 1494 1493 1494 1497 1500 1504 1508 1512 1516 1519 1523 1527 1530 1533 1536 1539 1542 1544 1547 1549 1551 1552 1554 1556 1557 1559 1561 1562 1563 1565 1566 1568 1569 1571 1572 1574 1575 1576 1577 1578
1486 1485 1484 1483 1483 1484 1486 1489 1490 1492 1493 1495 1499 1503 1505 1508 1512 1517 1520 1524 1527 1530 1534 1536 1539 1542 1545 1547 1549 1551 1553 1555 1557 1559 1561 1562 1564 1565 1566 1568 1569 1571 1573 1574 1575 1576 1578 1579 1579
1484 1484 1483 1482 1482 1483 1486 1489 1491 1492 1493 1496 1500 1503 1506 1509 1512 1516 1520 1523 1526 1530 1533 1537 1539 1542 1545 1548 1550 1552 1554 1556 1558 1560 1562 1563 1565 1566 1568 1569 1571 1572 1574 1575 1577 1578 1579 1580 1581
1483 1484 1484 1482 1482 1483 1487 1493 1491 1491 1493 1497 1501 1504 1507 1510 1513 1516 1519 1522 1526 1530 1533 1536 1539 1542 1545 1548 1551 1553 1555 1557 1559 1561 1563 1564 1566 1567 1569 1570 1572 1574 1575 1576 1577 1578 1580 1580 1581
1484 1490 1494 1486 1483 1484 1490 1499 1491 1492 1493 1497 1501 1505 1507 1510 1513 1516 1519 1523 1527 1530 1533 1536 1539 1542 1545 1548 1550 1553 1555 1557 1559 1561 1563 1565 1566 1568 1569 1571 1573 1574 1575 1577 1578 1579 1580 1581 1582
1495 1500 1498 1491 1485 1485 1489 1495 1490 1491 1494 1497 1500 1503 1506 1509 1512 1515 1519 1522 1526 1530 1533 1536 1538 1541 1544 1547 1550 1553 1555 1558 1560 1561 1563 1564 1566 1568 1569 1571 1573 1574 1576 1577 1578 1579 1580 1581 1582
1501 1499 1498 1496 1488 1487 1491 1492 1490 1491 1493 1496 1499 1502 1505 1506 1508 1512 1517 1521 1525 1529 1532 1535 1538 1540 1543 1547 1550 1552 1554 1557 1559 1561 1562 1564 1566 1567 1569 1571 1572 1574 1575 1576 1578 1579 1580 1581 1582
1491 1495 1499 1495 1488 1489 1491 1492 1490 1491 1493 1496 1498 1500 1502 1502 1507 1512 1515 1519 1523 1527 1530 1533 1536 1539 1541 1544 1547 1550 1552 1555 1558 1560 1562 1563 1565 1567 1568 1570 1571 1573 1574 1575 1577 1578 1579 1580 1581
1489 1495 1497 1493 1488 1489 1493 1493 1489 1489 1489 1491 1493 1496 1497 1501 1505 1508 1512 1516 1519 1523 1527 1530 1533 1536 1539 1542 1545 1548 1551 1554 1556 1559 1560 1562 1564 1565 1567 1568 1570 1571 1572 1574 1575 1576 1577 1579 1580
1490 1494 1495 1495 1492 1490 1494 1499 1494 1490 1490 1492 1493 1494 1496 1498 1501 1504 1508 1512 1516 1519 1523 1527 1530 1534 1537 1540 1543 1546 1549 1552 1554 1555 1557 1560 1562 1563 1565 1566 1568 1569 1571 1572 1573 1574 1576 1577 1578
1494 1486 1488 1491 1499 1507 1500 1516 1499 1493 1491 1490 1489 1491 1493 1496 1499 1502 1505 1509 1512 1516 1520 1524 1528 1531 1535 1538 1540 1543 1545 1547 1550 1553 1555 1557 1559 1561 1563 1564 1565 1567 1568 1569 1571 1572 1573 1574 1575
1484 1481 1485 1489 1498 1508 1505 1513 1506 1494 1494 1488 1485 1486 1489 1492 1496 1499 1502 1506 1510 1514 1518 1521 1525 1528 1532 1535 1537 1540 1542 1545 1548 1551 1553 1554 1556 1558 1560 1561 1562 1564 1565 1566 1568 1569 1570 1571 1572
1477 1484 1492 1501 1507 1520 1509 1513 1508 1496 1487 1482 1480 1482 1484 1488 1492 1495 1500 1504 1507 1511 1514 1518 1522 1525 1528 1531 1534 1537 1540 1542 1545 1547 1549 1551 1553 1555 1556 1558 1559 1560 1562 1563 1564 1565 1567 1568 1569
1479 1498 1516 1518 1528 1524 1507 1508 1503 1483 1479 1477 1476 1477 1480 1484 1488 1491 1495 1499 1503 1506 1510 1513 1517 1520 1524 1527 1530 1533 1537 1540 1541 1544 1546 1548 1549 1551 1552 1554 1555 1556 1558 1559 1561 1561 1562 1564 1565
1481 1491 1514 1524 1527 1521 1508 1508 1492 1476 1475 1474 1474 1475 1478 1481 1484 1487 1490 1494 1498 1502 1506 1509 1513 1516 1520 1523 1527 1530 1533 1536 1538 1540 1542 1544 1546 1547 1549 1550 1551 1552 1553 1554 1556 1557 1558 1559 1560
1482 1489 1489 1509 1514 1517 1512 1502 1485 1475 1474 1473 1472 1473 1475 1478 1481 1484 1487 1491 1495 1498 1502 1505 1509 1513 1516 1519 1522 1526 1529 1531 1534 1536 1539 1541 1542 1544 1545 1546 1547 1548 1549 1550 1551 1552 1553 1554 1555
1469 1480 1496 1508 1521 1522 1510 1504 1496 1479 1476 1473 1472 1472 1473 1476 1479 1482 1485 1488 1492 1496 1499 1503 1506 1509 1512 1515 1518 1522 1526 1528 1531 1533 1535 1537 1539 1540 1541 1542 1542 1543 1544 1545 1546 1547 1548 1548 1549
1475 1482 1491 1504 1507 1520 1520 1507 1478 1475 1473 1472 1472 1472 1473 1475 1478 1480 1483 1486 1489 1494 1497 1500 1503 1507 1510 1512 1516 1519 1522 1525 1527 1529 1531 1533 1535 1536 1537 1538 1538 1539 1539 1540 1541 1541 1542 1543 1544
1463 1473 1485 1498 1507 1509 1512 1504 1471 1471 1470 1471 1472 1473 1474 1476 1478 1479 1482 1485 1488 1492 1495 1498 1501 1504 1507 1511 1514 1517 1520 1522 1524 1526 1528 1530 1531 1532 1533 1534 1534 1534 1535 1535 1536 1536 1537 1538 1539